TimeCDT,TemperatureF,Dew PointF,Humidity,Sea Level PressureIn,VisibilityMPH,Wind Direction,Wind SpeedMPH,Gust SpeedMPH,PrecipitationIn,Events,Conditions,WindDirDegrees,DateUTC
12:53 AM,81.0,72.0,74,29.97,10.0,North,8.1,-,N/A,,Clear,10,2013-06-19 05:53:00
1:53 AM,80.1,73.0,79,29.95,10.0,ENE,5.8,-,N/A,,Clear,60,2013-06-19 06:53:00
2:53 AM,79.0,72.0,79,29.94,10.0,ESE,3.5,-,N/A,,Clear,110,2013-06-19 07:53:00
3:53 AM,78.1,72.0,81,29.94,10.0,SE,3.5,-,N/A,,Clear,140,2013-06-19 08:53:00
4:53 AM,78.1,72.0,81,29.94,10.0,SSE,3.5,-,N/A,,Clear,160,2013-06-19 09:53:00
5:53 AM,77.0,72.0,84,29.96,10.0,South,3.5,-,N/A,,Clear,170,2013-06-19 10:53:00
6:53 AM,79.0,72.0,79,29.98,10.0,SSW,5.8,-,N/A,,Mostly Cloudy,200,2013-06-19 11:53:00
7:53 AM,81.0,72.0,74,29.99,10.0,SW,8.1,-,N/A,,Mostly Cloudy,230,2013-06-19 12:53:00
8:53 AM,82.9,72.0,69,30.01,10.0,West,9.2,-,N/A,,Partly Cloudy,270,2013-06-19 13:53:00
9:53 AM,82.9,73.0,72,30.01,10.0,WNW,10.4,-,N/A,,Mostly Cloudy,290,2013-06-19 14:53:00
10:32 AM,82.4,75.2,79,30.04,10.0,NW,13.8,21.9,N/A,,Scattered Clouds,320,2013-06-19 15:32:00
10:53 AM,84.0,73.9,72,30.03,10.0,North,13.8,19.6,N/A,,Mostly Cloudy,360,2013-06-19 15:53:00
11:53 AM,84.9,73.0,67,30.02,10.0,North,11.5,-,N/A,,Mostly Cloudy,10,2013-06-19 16:53:00
12:53 PM,84.0,72.0,67,30.02,10.0,NNW,11.5,-,N/A,,Mostly Cloudy,340,2013-06-19 17:53:00
1:53 PM,86.0,73.0,65,30.01,10.0,North,10.4,-,N/A,,Mostly Cloudy,350,2013-06-19 18:53:00
2:53 PM,87.1,73.0,63,30.00,10.0,North,8.1,-,N/A,,Mostly Cloudy,360,2013-06-19 19:53:00
3:53 PM,86.0,72.0,63,29.99,10.0,North,5.8,-,N/A,,Scattered Clouds,350,2013-06-19 20:53:00
4:53 PM,87.1,71.1,59,29.98,10.0,NNW,3.5,-,N/A,,Scattered Clouds,340,2013-06-19 21:53:00
5:53 PM,84.0,70.0,63,29.98,10.0,Calm,Calm,-,N/A,,Scattered Clouds,0,2013-06-19 22:53:00
6:53 PM,84.0,71.1,65,29.98,10.0,WNW,4.6,-,N/A,,Clear,290,2013-06-19 23:53:00
7:53 PM,84.0,70.0,63,29.99,10.0,West,5.8,-,N/A,,Partly Cloudy,270,2013-06-20 00:53:00
8:53 PM,84.0,69.1,61,30.00,10.0,West,5.8,-,N/A,,Clear,280,2013-06-20 01:53:00
9:53 PM,82.9,69.1,63,30.01,10.0,SW,4.6,-,N/A,,Clear,220,2013-06-20 02:53:00
10:53 PM,82.9,69.1,63,30.02,10.0,SSW,5.8,-,N/A,,Clear,200,2013-06-20 03:53:00
11:53 PM,81.0,70.0,69,30.02,10.0,South,4.6,-,N/A,,Clear,190,2013-06-20 04:53:00